STARLINK-4684 (53595 NORAD) Tracking and Keplerian Element Data

This shows tracking and keplerian element data for the satellite.

Feedback or suggestion? Click here.




ElementValue
Catalog53595
NameSTARLINK-4684
Epoch Orbit130
Epoch Day324.91667824
Epoch Year2022
RAAN252.5616
Inclination53.2163
Eccentricity0.0001487
Argument of Perigee71.2518
Mean Anonmoly333.2188
Mean Motion15.08839439
Decay Rate-0.00016247
L11 53595U 22104H 22324.91667824 -.00016247 00000+0 -10050-2 0 9991
L22 53595 53.2163 252.5616 0001487 71.2518 333.2188 15.08839439 1302



Live tracking and technical data element details for STARLINK-4684 (NORAD 53595). STARLINK-4684 can be tracked NOW for your location showing map with azimuth and elevation plus other details from your city location.







IsCatalogInMostPopularTable: catalog: 53595, numindb: 5
Update: records affected: 1



GetName: 53595 STARLINK-4684

Hit Count: updated at: Thu, 08 Dec 2022 20:40:10 GMT